This is the latest recevied weather packets stored in our database for station/object KC9MWQ-13. If no packets are shown the sender has not sent any weather packets the latest 10 day(s).
| Time | Temp. | Humidity | Pressure | Rain* | Wind** | Luminosity | Snow |
|---|---|---|---|---|---|---|---|
| 1777489108 | 15.56° C | 72% | 1011.9 hPa | 0 mm | - | 290 W/m² | - |
| 1777488805 | 15.56° C | 77% | 1011.9 hPa | 0 mm | - | 297 W/m² | - |
| 1777488503 | 15.56° C | 75% | 1012.1 hPa | 0 mm | - | 345 W/m² | - |
| 1777488201 | 15° C | 77% | 1012 hPa | 0 mm | - | 251 W/m² | - |
| 1777487898 | 15° C | 78% | 1012.1 hPa | 0 mm | - | 139 W/m² | - |
| 1777487596 | 15.56° C | 76% | 1012.1 hPa | 0 mm | - | 112 W/m² | - |
| 1777487293 | 15.56° C | 77% | 1012 hPa | 0 mm | - | 342 W/m² | - |
| 1777486990 | 16.67° C | 74% | 1011.9 hPa | 0 mm | - | 162 W/m² | - |
| 1777486686 | 16.11° C | 80% | 1011.7 hPa | 0 mm | - | 501 W/m² | - |
| 1777486384 | 15° C | 82% | 1012 hPa | 0 mm | - | 232 W/m² | - |
| 1777486081 | 15° C | 83% | 1011.8 hPa | 0 mm | - | 185 W/m² | - |
| 1777485778 | 15° C | 82% | 1011.5 hPa | 0 mm | - | 131 W/m² | - |
| 1777485473 | 15° C | 82% | 1011.8 hPa | 0 mm | - | 134 W/m² | - |
| 1777485170 | 15.56° C | 81% | 1011.8 hPa | 0 mm | - | 212 W/m² | - |
| 1777484866 | 16.11° C | 83% | 1011.9 hPa | 0 mm | - | 184 W/m² | - |
| 1777484564 | 16.11° C | 81% | 1011.9 hPa | 0 mm | - | 357 W/m² | - |
| 1777484260 | 16.67° C | 84% | 1011.9 hPa | 0 mm | - | 239 W/m² | - |
| 1777483956 | 16.11° C | 83% | 1012 hPa | 0 mm | - | 419 W/m² | - |
| 1777483653 | 16.11° C | 82% | 1012.1 hPa | 0 mm | - | 306 W/m² | - |
| 1777483348 | 16.11° C | 84% | 1011.8 hPa | 0 mm | - | 498 W/m² | - |
| 1777483044 | 15.56° C | 85% | 1012.1 hPa | 0 mm | - | 810 W/m² | - |
| 1777482741 | 16.11° C | 84% | 1012.1 hPa | 0 mm | - | 357 W/m² | - |
| 1777482437 | 16.67° C | 84% | 1012.2 hPa | 0 mm | - | 879 W/m² | - |
| 1777482135 | 15.56° C | 86% | 1012 hPa | 0 mm | - | 920 W/m² | - |
| 1777481832 | 15.56° C | 88% | 1012.2 hPa | 0 mm | - | 386 W/m² | - |
* Rain latest hour (hover to see other rain measurements)
** Current wind speed in m/s (hover to see current wind gust speed)